AEROCUBE 5C

Last updated on Thu Nov 21 2024 00:03:39 GMT+0000 (Coordinated Universal Time)

1 40965U 15058B 24325.21276970 .00006344 00000+0 54573-3 0 9996 2 40965 64.7690 241.7727 0188255 261.4578 96.5160 14.85523473280199
UTC large
Height (km)
Speed (km/s)
/
Latitude / Longitude
Inclination (degrees)
Orbital Period (minutes)
Azimuth
Elevation
Range (km)
Doppler Factor

Next 0 passes for location: London (51.5072 / 0.1276)

Sorry there are no passes over London.